Simultaneous Nadir Overpasses (SNOs) Predictions

Prediction of SNOs between GOES-15 and TERRA Satellite Orbit:

Table of predicted SNOs for the next 14.0 days since TLE Epoch: 6/16/2017
Index Date Time (GOES-15) GOES-15 Lat,Lon TERRA Lat,Lon Distance(km) Time Diff (sec)
1 06/16/2017 07:29:34 0.11,-135.34 0.24,-134.83 58.48 3
2 06/18/2017 07:16:05 0.12,-135.37 0.83,-131.87 397.57 80
3 06/18/2017 19:40:00 -0.10,-135.43 0.23,-137.03 182.20 80
4 06/20/2017 19:25:10 -0.10,-135.45 -0.42,-134.08 156.02 80
5 06/21/2017 07:49:12 0.08,-135.40 -0.76,-139.26 438.97 80
6 06/22/2017 19:12:58 -0.11,-135.46 -1.02,-131.12 493.36 80
7 06/23/2017 07:37:01 0.09,-135.41 -0.10,-136.30 101.79 80
8 06/25/2017 07:22:10 0.10,-135.41 0.56,-133.36 234.67 80
9 06/25/2017 19:46:05 -0.08,-135.46 0.57,-138.50 345.66 80
10 06/27/2017 19:31:14 -0.09,-135.46 -0.10,-135.55 10.07 80
11 06/29/2017 19:19:02 -0.10,-135.46 -0.70,-132.59 326.28 80




NCC Satellite Simultaneous Nadir Overpasses (SNOs) Prediction Service
